{"data":{"norad_id":65062,"epoch":"2026-09-20T22:45:34.072992Z","epoch_age_seconds":81429,"freshness":"FRESH","line1":"1 65062U 25165G   26263.94831103  .00020260  00000+0  62772-3 0  9992","line2":"2 65062  97.2844 335.1542 0001827  86.8879 273.2573 15.33468359 64198","mean_motion":15.33468359,"eccentricity":0.0001827,"inclination_deg":97.2844,"raan_deg":335.1542,"arg_perigee_deg":86.8879,"mean_anomaly_deg":273.2573,"bstar":0.00062772,"rev_number":6419,"period_min":93.90477420343,"perigee_km":464.22334774042,"apogee_km":466.72400308122,"semimajor_km":6843.6106754108,"source":"CELESTRAK","updated_at":"2026-09-21T09:00:35.499008Z"}}